Location: Heiligenberg
(48.5381°N, 7.3897°E)
Time: 21:05:39
(UTC+00:00)

USA 307 - Pass Details

Date: 26 May 2022
Orbit: 552 x 554 km, 54.0° (Epoch: 17 June)

Event Time Altitude Azimuth Distance (km) Brightness Sun altitude
Exits shadow 00:12:06 35° 133° (SE) 902 3.6 -19.7°
Drops below altitude 10° 00:15:46 10° 73° (ENE) 1,843 5.9 -19.5°
Sets 00:18:08 0° 64° (ENE) 2,742 6.9 -19.5°
